Location: Unspecified
(50.7693°N, 0.0000°E)
Time: 01:44:36
(UTC+00:00)

Vanguard 2 - Pass Details

Date: 23 June 2019
Orbit: 553 x 2938 km, 32.9° (Epoch: 17 August)

Event Time Altitude Azimuth Distance (km) Brightness Sun altitude
Rises 08:11:20 0° 212° (SSW) 3,166 10.5 38.2°
Reaches altitude 10° 08:14:45 10° 185° (S) 2,548 10.4 38.7°
Maximum altitude 08:17:42 14° 155° (SSE) 2,565 10.8 39.2°
Drops below altitude 10° 08:21:17 10° 127° (SE) 3,218 11.7 39.7°
Sets 08:26:43 0° 106° (ESE) 4,769 12.5 40.6°
